Location: Allentsteig
(48.6833°N, 15.3167°E)
Time: 17:31:32
(UTC+00:00)

ERS-1 Rocket - Pass Details

Date: 18 September 2020
Orbit: 753 x 757 km, 98.5° (Epoch: 30 October)

Event Time Altitude Azimuth Distance (km) Brightness Sun altitude
Exits shadow 19:17:21 23° 56° (NE) 1,565 4.3 -21.8°
Drops below altitude 10° 19:21:02 10° 9° (N) 2,296 5.7 -22.3°
Sets 19:23:43 0° 356° (N) 3,226 6.7 -22.7°
